| time (UTC) | temp F | wind direction | speed knots | gust knots | rain 1hr in | rain 24hr in | rain mn in | humidity % | barometer mb |
| 20260507023022 | 57 | 303 | 3.5 | 7.0 | 0.00 | 0.00 | 0.00 | 73 | 1010.5 |
| 20260507022017 | 57 | 293 | 3.5 | 6.1 | 0.00 | 0.00 | 0.00 | 73 | 1010.6 |
| 20260507021033 | 57 | 296 | 3.5 | 6.1 | 0.00 | 0.00 | 0.00 | 74 | 1010.4 |
| 20260507020028 | 57 | 299 | 3.5 | 7.8 | 0.00 | 0.00 | 0.00 | 73 | 1010.5 |
| 20260507015023 | 57 | 283 | 3.5 | 7.0 | 0.00 | 0.00 | 0.00 | 73 | 1010.5 |
| 20260507014019 | 58 | 291 | 2.6 | 5.2 | 0.00 | 0.00 | 0.00 | 73 | 1010.5 |
| 20260507013054 | 58 | 293 | 2.6 | 6.1 | 0.00 | 0.00 | 0.00 | 73 | 1010.5 |
| 20260507012029 | 58 | 282 | 3.5 | 5.2 | 0.00 | 0.00 | 0.00 | 73 | 1010.6 |
| 20260507011045 | 58 | 298 | 3.5 | 5.2 | 0.00 | 0.00 | 0.00 | 72 | 1010.6 |
| 20260507010020 | 59 | 305 | 3.5 | 5.2 | 0.00 | 0.00 | 0.00 | 70 | 1010.6 |
| 20260507005015 | 59 | 320 | 1.7 | 2.6 | 0.00 | 0.00 | 0.00 | 67 | 1010.7 |
| 20260507004111 | 60 | 325 | 1.7 | 3.5 | 0.00 | 0.00 | 0.00 | 66 | 1010.8 |
| 20260507003026 | 60 | 345 | 0.9 | 1.7 | 0.00 | 0.00 | 0.00 | 67 | 1010.8 |
| 20260507002022 | 60 | 337 | 1.7 | 3.5 | 0.00 | 0.00 | 0.00 | 67 | 1010.9 |
| 20260507001037 | 60 | 333 | 0.9 | 2.6 | 0.00 | 0.00 | 0.00 | 67 | 1011.1 |
| 20260507000032 | 60 | 304 | 1.7 | 2.6 | 0.00 | 0.00 | 0.00 | 68 | 1011.1 |
| 20260506235027 | 60 | 317 | 1.7 | 2.6 | 0.00 | 0.00 | 0.00 | 70 | 1011.2 |
| 20260506234023 | 60 | 320 | 1.7 | 2.6 | 0.00 | 0.00 | 0.00 | 72 | 1011.2 |
| 20260506233058 | 60 | 326 | 1.7 | 3.5 | 0.00 | 0.00 | 0.00 | 72 | 1011.1 |
| 20260506232114 | 60 | 348 | 0.9 | 1.7 | 0.00 | 0.00 | 0.00 | 72 | 1011.3 |
| 20260506231029 | 60 | 338 | 0.9 | 1.7 | 0.00 | 0.00 | 0.00 | 72 | 1011.4 |
| 20260506230024 | 61 | 328 | 0.9 | 1.7 | 0.00 | 0.00 | 0.00 | 72 | 1011.4 |
| 20260506225020 | 60 | 346 | 0.9 | 1.7 | 0.00 | 0.00 | 0.00 | 72 | 1011.3 |
| 20260506224015 | 60 | 343 | 0.9 | 2.6 | 0.00 | 0.00 | 0.00 | 73 | 1011.5 |
| 20260506223111 | 61 | 339 | 0.9 | 1.7 | 0.00 | 0.00 | 0.00 | 73 | 1011.6 |
| 20260506222026 | 61 | 339 | 0.9 | 1.7 | 0.00 | 0.00 | 0.00 | 73 | 1011.4 |
| 20260506221042 | 61 | 358 | 0.9 | 0.9 | 0.00 | 0.00 | 0.00 | 72 | 1011.4 |
| 20260506220017 | 61 | 330 | 0.9 | 1.7 | 0.00 | 0.00 | 0.00 | 72 | 1011.4 |
| 20260506215032 | 61 | 353 | 0.9 | 1.7 | 0.00 | 0.00 | 0.00 | 71 | 1011.5 |
| 20260506214028 | 61 | 323 | 0.9 | 1.7 | 0.00 | 0.00 | 0.00 | 71 | 1011.5 |
| 20260506213044 | 62 | 351 | 0.0 | 1.7 | 0.00 | 0.00 | 0.00 | 70 | 1011.5 |
| 20260506212018 | 62 | 356 | 0.9 | 1.7 | 0.00 | 0.00 | 0.00 | 69 | 1011.3 |
| 20260506211054 | 62 | 12 | 0.9 | 0.9 | 0.00 | 0.00 | 0.00 | 69 | 1011.2 |
| 20260506210029 | 62 | 61 | 0.0 | 0.9 | 0.00 | 0.00 | 0.00 | 69 | 1011.2 |
| 20260506205025 | 62 | 51 | 0.0 | 1.7 | 0.00 | 0.00 | 0.00 | 69 | 1011.0 |
| 20260506204020 | 62 | 56 | 0.0 | 1.7 | 0.00 | 0.00 | 0.00 | 69 | 1010.9 |
| 20260506203015 | 63 | 68 | 0.0 | 1.7 | 0.00 | 0.00 | 0.00 | 69 | 1010.8 |
| 20260506202051 | 62 | 53 | 0.9 | 1.7 | 0.00 | 0.00 | 0.00 | 69 | 1010.7 |
| 20260506201026 | 62 | 67 | 0.9 | 2.6 | 0.00 | 0.00 | 0.00 | 69 | 1010.7 |
| 20260506200041 | 62 | 72 | 0.9 | 2.6 | 0.00 | 0.00 | 0.00 | 69 | 1010.6 |
| 20260506195017 | 62 | 71 | 0.0 | 0.9 | 0.00 | 0.00 | 0.00 | 69 | 1010.4 |
| 20260506194032 | 62 | 71 | 0.0 | 1.7 | 0.00 | 0.00 | 0.00 | 70 | 1010.3 |
| 20260506193028 | 62 | 64 | 0.9 | 2.6 | 0.00 | 0.00 | 0.00 | 70 | 1010.2 |
| 20260506192023 | 62 | 70 | 0.0 | 2.6 | 0.00 | 0.00 | 0.00 | 70 | 1010.1 |
| 20260506191039 | 63 | 83 | 1.7 | 5.2 | 0.00 | 0.00 | 0.00 | 70 | 1010.0 |
| 20260506190035 | 63 | 74 | 1.7 | 3.5 | 0.00 | 0.00 | 0.00 | 69 | 1010.0 |
| 20260506185030 | 63 | 97 | 4.3 | 7.0 | 0.00 | 0.00 | 0.00 | 69 | 1010.0 |
| 20260506184025 | 63 | 91 | 2.6 | 6.1 | 0.00 | 0.00 | 0.00 | 67 | 1009.8 |
| 20260506183020 | 64 | 92 | 1.7 | 5.2 | 0.00 | 0.00 | 0.00 | 66 | 1009.8 |
| 20260506182036 | 64 | 118 | 4.3 | 7.0 | 0.00 | 0.00 | 0.00 | 66 | 1009.7 |
| 20260506181031 | 64 | 102 | 3.5 | 7.8 | 0.00 | 0.00 | 0.00 | 66 | 1009.6 |
| 20260506180027 | 64 | 115 | 4.3 | 8.7 | 0.00 | 0.00 | 0.00 | 66 | 1009.5 |
| 20260506175022 | 64 | 96 | 4.3 | 7.8 | 0.00 | 0.00 | 0.00 | 65 | 1009.5 |
| 20260506174017 | 64 | 116 | 4.3 | 7.8 | 0.00 | 0.00 | 0.00 | 64 | 1009.4 |
| 20260506173032 | 64 | 103 | 6.1 | 9.6 | 0.00 | 0.00 | 0.00 | 66 | 1009.5 |
| 20260506172027 | 64 | 91 | 5.2 | 12.2 | 0.00 | 0.00 | 0.00 | 66 | 1009.5 |
| 20260506171023 | 64 | 95 | 5.2 | 11.3 | 0.00 | 0.00 | 0.00 | 65 | 1009.7 |
| 20260506170018 | 64 | 96 | 6.1 | 12.2 | 0.00 | 0.00 | 0.00 | 65 | 1009.8 |
| 20260506165034 | 65 | 99 | 7.0 | 13.9 | 0.00 | 0.00 | 0.00 | 64 | 1009.8 |
| 20260506164029 | 65 | 99 | 6.1 | 11.3 | 0.00 | 0.00 | 0.00 | 62 | 1009.8 |
| 20260506163044 | 65 | 94 | 7.0 | 13.0 | 0.00 | 0.00 | 0.00 | 64 | 1009.7 |
| 20260506162020 | 65 | 104 | 7.0 | 13.9 | 0.00 | 0.00 | 0.00 | 64 | 1009.7 |
| 20260506161015 | 66 | 123 | 7.8 | 13.9 | 0.00 | 0.00 | 0.00 | 62 | 1009.6 |
| 20260506160031 | 65 | 95 | 6.1 | 13.0 | 0.00 | 0.00 | 0.00 | 61 | 1009.7 |
| 20260506155026 | 65 | 93 | 7.0 | 13.0 | 0.00 | 0.00 | 0.00 | 63 | 1009.7 |
| 20260506154021 | 65 | 95 | 7.0 | 13.0 | 0.00 | 0.00 | 0.00 | 64 | 1009.7 |
| 20260506153017 | 65 | 99 | 7.0 | 13.0 | 0.00 | 0.00 | 0.00 | 62 | 1009.5 |
| 20260506152032 | 64 | 101 | 7.8 | 13.9 | 0.00 | 0.00 | 0.00 | 65 | 1009.3 |
| 20260506151027 | 64 | 109 | 8.7 | 14.8 | 0.00 | 0.00 | 0.00 | 64 | 1009.5 |
| 20260506150023 | 64 | 96 | 7.0 | 13.0 | 0.00 | 0.00 | 0.00 | 64 | 1009.7 |
| 20260506145018 | 65 | 91 | 5.2 | 12.2 | 0.00 | 0.00 | 0.00 | 63 | 1010.0 |
| 20260506144033 | 65 | 115 | 6.1 | 12.2 | 0.00 | 0.00 | 0.00 | 64 | 1009.9 |
| 20260506143028 | 65 | 110 | 5.2 | 9.6 | 0.00 | 0.00 | 0.00 | 64 | 1009.9 |
| 20260506142025 | 64 | 128 | 7.8 | 12.2 | 0.00 | 0.00 | 0.00 | 64 | 1010.0 |
| 20260506141020 | 65 | 105 | 7.8 | 13.9 | 0.00 | 0.00 | 0.00 | 65 | 1010.2 |
| 20260506140035 | 65 | 118 | 8.7 | 14.8 | 0.00 | 0.00 | 0.00 | 65 | 1010.2 |
| 20260506135030 | 65 | 125 | 8.7 | 14.8 | 0.00 | 0.00 | 0.00 | 64 | 1010.1 |
| 20260506134025 | 66 | 106 | 6.1 | 13.0 | 0.00 | 0.00 | 0.00 | 64 | 1010.0 |
| 20260506133041 | 65 | 131 | 11.3 | 16.5 | 0.00 | 0.00 | 0.00 | 66 | 1010.0 |
| 20260506132016 | 66 | 119 | 10.4 | 14.8 | 0.00 | 0.00 | 0.00 | 63 | 1010.0 |
| 20260506131032 | 65 | 100 | 8.7 | 15.6 | 0.00 | 0.00 | 0.00 | 60 | 1010.0 |
| 20260506130047 | 66 | 124 | 9.6 | 14.8 | 0.00 | 0.00 | 0.00 | 61 | 1010.3 |
| 20260506125022 | 68 | 124 | 7.8 | 13.0 | 0.00 | 0.00 | 0.00 | 56 | 1010.2 |
| 20260506124017 | 67 | 130 | 8.7 | 14.8 | 0.00 | 0.00 | 0.00 | 57 | 1010.2 |
| 20260506123033 | 66 | 111 | 10.4 | 15.6 | 0.00 | 0.00 | 0.00 | 59 | 1010.2 |
| 20260506122028 | 67 | 120 | 7.0 | 13.0 | 0.00 | 0.00 | 0.00 | 60 | 1010.2 |
| 20260506121024 | 67 | 114 | 9.6 | 13.9 | 0.00 | 0.00 | 0.00 | 61 | 1010.2 |
| 20260506120018 | 67 | 119 | 10.4 | 19.1 | 0.00 | 0.00 | 0.00 | 59 | 1010.3 |
| 20260506115034 | 67 | 123 | 10.4 | 16.5 | 0.00 | 0.00 | 0.00 | 60 | 1010.3 |
| 20260506114029 | 67 | 132 | 9.6 | 19.1 | 0.00 | 0.00 | 0.00 | 59 | 1010.5 |
| 20260506113024 | 68 | 125 | 9.6 | 14.8 | 0.00 | 0.00 | 0.00 | 57 | 1010.4 |
| 20260506112020 | 68 | 126 | 8.7 | 14.8 | 0.00 | 0.00 | 0.00 | 56 | 1010.4 |
| 20260506111114 | 68 | 121 | 7.0 | 13.0 | 0.00 | 0.00 | 0.00 | 55 | 1010.5 |
| 20260506110049 | 69 | 138 | 7.8 | 14.8 | 0.00 | 0.00 | 0.00 | 52 | 1010.4 |
| 20260506105025 | 68 | 116 | 7.0 | 13.0 | 0.00 | 0.00 | 0.00 | 53 | 1010.6 |
| 20260506104040 | 68 | 130 | 5.2 | 11.3 | 0.00 | 0.00 | 0.00 | 52 | 1010.6 |
| 20260506103016 | 68 | 132 | 7.0 | 13.9 | 0.00 | 0.00 | 0.00 | 52 | 1010.6 |
| 20260506102031 | 69 | 118 | 5.2 | 11.3 | 0.00 | 0.00 | 0.00 | 52 | 1010.6 |
| 20260506101026 | 69 | 137 | 5.2 | 11.3 | 0.00 | 0.00 | 0.00 | 51 | 1010.7 |
| 20260506100022 | 69 | 144 | 3.5 | 7.0 | 0.00 | 0.00 | 0.00 | 52 | 1010.7 |
| 20260506095017 | 68 | 157 | 3.5 | 7.8 | 0.00 | 0.00 | 0.00 | 52 | 1010.7 |
| 20260506094052 | 69 | 115 | 4.3 | 7.8 | 0.00 | 0.00 | 0.00 | 51 | 1010.7 |
| 20260506093027 | 68 | 109 | 2.6 | 7.8 | 0.00 | 0.00 | 0.00 | 49 | 1010.7 |
| 20260506092022 | 67 | 137 | 2.6 | 7.0 | 0.00 | 0.00 | 0.00 | 50 | 1010.7 |
| 20260506091018 | 68 | 171 | 2.6 | 7.0 | 0.00 | 0.00 | 0.00 | 50 | 1010.7 |
| 20260506090033 | 69 | 193 | 1.7 | 5.2 | 0.00 | 0.00 | 0.00 | 50 | 1010.6 |
| 20260506085028 | 68 | 185 | 0.9 | 2.6 | 0.00 | 0.00 | 0.00 | 52 | 1010.7 |
| 20260506084024 | 67 | 162 | 2.6 | 6.1 | 0.00 | 0.00 | 0.00 | 53 | 1010.6 |
| 20260506083039 | 68 | 131 | 1.7 | 3.5 | 0.00 | 0.00 | 0.00 | 53 | 1010.7 |
| 20260506082034 | 69 | 292 | 0.0 | 1.7 | 0.00 | 0.00 | 0.00 | 52 | 1010.7 |
| 20260506081029 | 67 | 271 | 0.9 | 1.7 | 0.00 | 0.00 | 0.00 | 55 | 1010.7 |
| 20260506073031 | 63 | 264 | 1.7 | 3.5 | 0.00 | 0.00 | 0.00 | 63 | 1010.8 |
| 20260506072026 | 63 | 288 | 1.7 | 3.5 | 0.00 | 0.00 | 0.00 | 64 | 1010.7 |
| 20260506071042 | 62 | 314 | 2.6 | 6.1 | 0.00 | 0.00 | 0.00 | 66 | 1010.6 |
| 20260506062019 | 60 | 306 | 0.9 | 1.7 | 0.00 | 0.00 | 0.00 | 71 | 1010.6 |
| 20260506061035 | 60 | 0.0 | 0.0 | 0.00 | 0.00 | 0.00 | 71 | 1010.4 | |
| 20260506051047 | 57 | 307 | 3.5 | 6.1 | 0.00 | 0.00 | 0.00 | 76 | 1010.2 |
| 20260506045038 | 56 | 307 | 1.7 | 6.1 | 0.00 | 0.00 | 0.00 | 78 | 1010.2 |
| 20260506044053 | 56 | 277 | 0.9 | 3.5 | 0.00 | 0.00 | 0.00 | 79 | 1010.1 |
| 20260506043028 | 56 | 322 | 1.7 | 3.5 | 0.00 | 0.00 | 0.00 | 79 | 1010.0 |
| 20260506042024 | 56 | 316 | 1.7 | 5.2 | 0.00 | 0.00 | 0.00 | 79 | 1009.9 |
| 20260506041019 | 57 | 334 | 0.9 | 1.7 | 0.00 | 0.00 | 0.00 | 78 | 1010.0 |
| 20260506040035 | 57 | 334 | 1.7 | 3.5 | 0.00 | 0.00 | 0.00 | 76 | 1009.9 |
| 20260506035030 | 58 | 321 | 0.9 | 2.6 | 0.00 | 0.00 | 0.00 | 75 | 1009.8 |
| 20260506034025 | 58 | 328 | 0.9 | 3.5 | 0.00 | 0.00 | 0.00 | 75 | 1009.8 |
| 20260506033021 | 58 | 332 | 0.9 | 2.6 | 0.00 | 0.00 | 0.00 | 75 | 1009.9 |
| 20260506032016 | 58 | 329 | 0.9 | 2.6 | 0.00 | 0.00 | 0.00 | 76 | 1010.0 |
| 20260506031032 | 58 | 326 | 0.0 | 1.7 | 0.00 | 0.00 | 0.00 | 76 | 1010.2 |
| 20260506030127 | 58 | 323 | 0.9 | 2.6 | 0.00 | 0.00 | 0.00 | 76 | 1010.2 |
| 20260506025023 | 58 | 329 | 0.9 | 0.9 | 0.00 | 0.00 | 0.00 | 75 | 1010.2 |
| 20260506024019 | 58 | 313 | 0.9 | 2.6 | 0.00 | 0.00 | 0.00 | 75 | 1010.1 |